Time,TemperatureF,DewpointF,PressureIn,WindDirection,WindDirectionDegrees,WindSpeedMPH,WindSpeedGustMPH,Humidity,HourlyPrecipIn,Conditions,Clouds,dailyrainin,SolarRadiationWatts/m^2,SoftwareType,DateUTC
2013-08-21 00:12:00,64.0,42.0,-100.00,SE,132,4.0,13.0,44,0.00,,,0.00,0.000000,,2013-08-21 06:12:00,
2013-08-21 00:22:00,64.0,42.0,-100.00,SE,132,4.0,13.0,44,0.00,,,0.00,0.000000,,2013-08-21 06:22:00,
2013-08-21 00:32:00,64.0,42.0,-100.00,SE,132,4.0,13.0,44,0.00,,,0.00,0.000000,,2013-08-21 06:32:00,
2013-08-21 00:42:00,64.0,42.0,-100.00,SE,132,4.0,13.0,44,0.00,,,0.00,0.000000,,2013-08-21 06:42:00,
2013-08-21 01:21:00,66.0,41.0,-100.00,South,183,6.0,9.0,40,0.00,,,0.00,0.000000,,2013-08-21 07:21:00,
2013-08-21 01:32:00,66.0,41.0,-100.00,South,183,6.0,9.0,40,0.00,,,0.00,0.000000,,2013-08-21 07:32:00,
2013-08-21 01:42:00,66.0,41.0,-100.00,South,183,6.0,9.0,40,0.00,,,0.00,0.000000,,2013-08-21 07:42:00,
2013-08-21 02:12:00,67.0,43.0,-100.00,WNW,288,7.0,12.0,41,0.00,,,0.00,0.000000,,2013-08-21 08:12:00,
2013-08-21 02:22:00,67.0,43.0,-100.00,WNW,288,7.0,12.0,41,0.00,,,0.00,0.000000,,2013-08-21 08:22:00,
2013-08-21 02:32:00,67.0,43.0,-100.00,WNW,288,7.0,12.0,41,0.00,,,0.00,0.000000,,2013-08-21 08:32:00,
2013-08-21 02:43:00,67.0,43.0,-100.00,WNW,288,7.0,12.0,41,0.00,,,0.00,0.000000,,2013-08-21 08:43:00,
2013-08-21 03:11:00,60.0,42.0,-100.00,SSE,155,1.0,7.0,51,0.00,,,0.00,0.000000,,2013-08-21 09:11:00,
2013-08-21 03:22:00,60.0,42.0,-100.00,SSE,155,1.0,7.0,51,0.00,,,0.00,0.000000,,2013-08-21 09:22:00,
2013-08-21 03:33:00,60.0,42.0,-100.00,SSE,155,1.0,7.0,51,0.00,,,0.00,0.000000,,2013-08-21 09:33:00,
2013-08-21 03:43:00,60.0,42.0,-100.00,SSE,155,1.0,7.0,51,0.00,,,0.00,0.000000,,2013-08-21 09:43:00,
2013-08-21 04:12:00,62.0,44.0,-100.00,SSE,168,6.0,8.0,51,0.00,,,0.00,0.000000,,2013-08-21 10:12:00,
2013-08-21 04:23:00,62.0,44.0,-100.00,SSE,168,6.0,8.0,51,0.00,,,0.00,0.000000,,2013-08-21 10:23:00,
2013-08-21 04:33:00,62.0,44.0,-100.00,SSE,168,6.0,8.0,51,0.00,,,0.00,0.000000,,2013-08-21 10:33:00,
2013-08-21 04:43:00,62.0,44.0,-100.00,SSE,168,6.0,8.0,51,0.00,,,0.00,0.000000,,2013-08-21 10:43:00,
2013-08-21 05:12:00,60.0,44.0,-100.00,SE,129,7.0,10.0,55,0.00,,,0.00,0.000000,,2013-08-21 11:12:00,
2013-08-21 05:22:00,60.0,44.0,-100.00,SE,129,7.0,10.0,55,0.00,,,0.00,0.000000,,2013-08-21 11:22:00,
2013-08-21 05:33:00,60.0,44.0,-100.00,SE,129,7.0,10.0,55,0.00,,,0.00,0.000000,,2013-08-21 11:33:00,
2013-08-21 05:42:00,60.0,44.0,-100.00,SE,129,7.0,10.0,55,0.00,,,0.00,0.000000,,2013-08-21 11:42:00,
2013-08-21 06:12:00,59.0,44.0,-100.00,SE,134,6.0,10.0,58,0.00,,,-99.99,0.000000,,2013-08-21 12:12:00,
2013-08-21 06:22:00,59.0,44.0,-100.00,SE,134,6.0,10.0,58,0.00,,,-99.99,0.000000,,2013-08-21 12:22:00,
2013-08-21 06:32:00,59.0,44.0,-100.00,SE,134,6.0,10.0,58,0.00,,,-99.99,0.000000,,2013-08-21 12:32:00,
2013-08-21 06:41:00,59.0,44.0,-100.00,SE,134,6.0,10.0,58,0.00,,,-99.99,0.000000,,2013-08-21 12:41:00,
2013-08-21 07:21:00,60.0,44.0,-100.00,SE,126,6.0,9.0,55,0.00,,,0.00,6.000000,,2013-08-21 13:21:00,
2013-08-21 07:32:00,60.0,44.0,-100.00,SE,126,6.0,9.0,55,0.00,,,0.00,6.000000,,2013-08-21 13:32:00,
2013-08-21 07:42:00,60.0,44.0,-100.00,SE,126,6.0,9.0,55,0.00,,,0.00,6.000000,,2013-08-21 13:42:00,
2013-08-21 08:11:00,68.0,46.0,-100.00,SE,130,8.0,14.0,46,0.00,,,0.00,122.000000,,2013-08-21 14:11:00,
2013-08-21 08:21:00,68.0,46.0,-100.00,SE,130,8.0,14.0,46,0.00,,,0.00,122.000000,,2013-08-21 14:21:00,
2013-08-21 08:32:00,68.0,46.0,-100.00,SE,130,8.0,14.0,46,0.00,,,0.00,122.000000,,2013-08-21 14:32:00,
2013-08-21 08:42:00,68.0,46.0,-100.00,SE,130,8.0,14.0,46,0.00,,,0.00,122.000000,,2013-08-21 14:42:00,
2013-08-21 09:11:00,74.0,47.0,-100.00,SE,126,7.0,11.0,39,0.00,,,0.00,281.000000,,2013-08-21 15:11:00,
2013-08-21 09:22:00,74.0,47.0,-100.00,SE,126,7.0,11.0,39,0.00,,,0.00,281.000000,,2013-08-21 15:22:00,
2013-08-21 09:34:00,74.0,47.0,-100.00,SE,126,7.0,11.0,39,0.00,,,0.00,281.000000,,2013-08-21 15:34:00,
2013-08-21 09:43:00,74.0,47.0,-100.00,SE,126,7.0,11.0,39,0.00,,,0.00,281.000000,,2013-08-21 15:43:00,
2013-08-21 10:24:00,78.0,46.0,-100.00,NW,316,5.0,11.0,32,0.00,,,0.00,488.000000,,2013-08-21 16:24:00,
2013-08-21 10:34:00,78.0,46.0,-100.00,NW,316,5.0,11.0,32,0.00,,,0.00,488.000000,,2013-08-21 16:34:00,
2013-08-21 10:43:00,78.0,46.0,-100.00,NW,316,5.0,11.0,32,0.00,,,0.00,488.000000,,2013-08-21 16:43:00,
2013-08-21 11:23:00,79.0,47.0,-100.00,NW,316,6.0,12.0,33,0.00,,,0.00,578.000000,,2013-08-21 17:23:00,
2013-08-21 11:34:00,79.0,47.0,-100.00,NW,316,6.0,12.0,33,0.00,,,0.00,578.000000,,2013-08-21 17:34:00,
2013-08-21 11:43:00,79.0,47.0,-100.00,NW,316,6.0,12.0,33,0.00,,,0.00,578.000000,,2013-08-21 17:43:00,
2013-08-21 12:12:00,81.0,47.0,-100.00,NW,316,6.0,14.0,30,0.00,,,0.00,877.000000,,2013-08-21 18:12:00,
2013-08-21 12:22:00,81.0,47.0,-100.00,NW,316,6.0,14.0,30,0.00,,,0.00,877.000000,,2013-08-21 18:22:00,
2013-08-21 12:32:00,81.0,47.0,-100.00,NW,316,6.0,14.0,30,0.00,,,0.00,877.000000,,2013-08-21 18:32:00,
2013-08-21 12:42:00,81.0,47.0,-100.00,NW,316,6.0,14.0,30,0.00,,,0.00,877.000000,,2013-08-21 18:42:00,
2013-08-21 13:12:00,83.0,45.0,-100.00,NW,325,7.0,14.0,26,0.00,,,0.00,971.000000,,2013-08-21 19:12:00,
2013-08-21 13:22:00,83.0,45.0,-100.00,NW,325,7.0,14.0,26,0.00,,,0.00,971.000000,,2013-08-21 19:22:00,
2013-08-21 13:32:00,83.0,45.0,-100.00,NW,325,7.0,14.0,26,0.00,,,0.00,971.000000,,2013-08-21 19:32:00,
2013-08-21 13:42:00,83.0,45.0,-100.00,NW,325,7.0,14.0,26,0.00,,,0.00,971.000000,,2013-08-21 19:42:00,
2013-08-21 14:22:00,82.0,43.0,-100.00,NNW,341,7.0,21.0,25,0.00,,,0.00,868.000000,,2013-08-21 20:22:00,
2013-08-21 14:32:00,82.0,43.0,-100.00,NNW,341,7.0,21.0,25,0.00,,,0.00,868.000000,,2013-08-21 20:32:00,
2013-08-21 14:42:00,82.0,43.0,-100.00,NNW,341,7.0,21.0,25,0.00,,,0.00,868.000000,,2013-08-21 20:42:00,
2013-08-21 15:12:00,83.0,42.0,-100.00,West,281,6.0,14.0,24,0.00,,,0.00,597.000000,,2013-08-21 21:12:00,
2013-08-21 15:21:00,83.0,42.0,-100.00,West,281,6.0,14.0,24,0.00,,,0.00,597.000000,,2013-08-21 21:21:00,
2013-08-21 15:34:00,83.0,42.0,-100.00,West,281,6.0,14.0,24,0.00,,,0.00,597.000000,,2013-08-21 21:34:00,
2013-08-21 15:44:00,83.0,42.0,-100.00,West,281,6.0,14.0,24,0.00,,,0.00,597.000000,,2013-08-21 21:44:00,
2013-08-21 16:14:00,87.0,41.0,-100.00,WNW,287,5.0,14.0,20,0.00,,,0.00,919.000000,,2013-08-21 22:14:00,
2013-08-21 16:24:00,87.0,41.0,-100.00,WNW,287,5.0,14.0,20,0.00,,,0.00,919.000000,,2013-08-21 22:24:00,
2013-08-21 16:34:00,87.0,41.0,-100.00,WNW,287,5.0,14.0,20,0.00,,,0.00,919.000000,,2013-08-21 22:34:00,
2013-08-21 16:43:00,87.0,41.0,-100.00,WNW,287,5.0,14.0,20,0.00,,,0.00,919.000000,,2013-08-21 22:43:00,
2013-08-21 17:12:00,88.0,39.0,-100.00,NE,42,7.0,20.0,18,0.00,,,0.00,706.000000,,2013-08-21 23:12:00,
2013-08-21 17:22:00,88.0,39.0,-100.00,NE,42,7.0,20.0,18,0.00,,,0.00,706.000000,,2013-08-21 23:22:00,
2013-08-21 17:34:00,88.0,39.0,-100.00,NE,42,7.0,20.0,18,0.00,,,0.00,706.000000,,2013-08-21 23:34:00,
2013-08-21 17:42:00,88.0,39.0,-100.00,NE,42,7.0,20.0,18,0.00,,,0.00,706.000000,,2013-08-21 23:42:00,
2013-08-21 18:21:00,87.0,38.0,-100.00,WNW,301,6.0,14.0,18,0.00,,,-99.99,478.000000,,2013-08-22 00:21:00,
2013-08-21 18:32:00,87.0,38.0,-100.00,WNW,301,6.0,14.0,18,0.00,,,-99.99,478.000000,,2013-08-22 00:32:00,
2013-08-21 18:42:00,87.0,38.0,-100.00,WNW,301,6.0,14.0,18,0.00,,,-99.99,478.000000,,2013-08-22 00:42:00,
2013-08-21 19:11:00,84.0,39.0,-100.00,NNW,337,4.0,11.0,20,0.00,,,0.00,254.000000,,2013-08-22 01:11:00,
2013-08-21 19:22:00,84.0,39.0,-100.00,NNW,337,4.0,11.0,20,0.00,,,0.00,254.000000,,2013-08-22 01:22:00,
2013-08-21 19:32:00,84.0,39.0,-100.00,NNW,337,4.0,11.0,20,0.00,,,0.00,254.000000,,2013-08-22 01:32:00,
2013-08-21 19:42:00,84.0,39.0,-100.00,NNW,337,4.0,11.0,20,0.00,,,0.00,254.000000,,2013-08-22 01:42:00,
2013-08-21 20:22:00,75.0,43.0,-100.00,SSW,197,12.0,19.0,32,0.00,,,0.00,95.000000,,2013-08-22 02:22:00,
2013-08-21 20:32:00,75.0,43.0,-100.00,SSW,197,12.0,19.0,32,0.00,,,0.00,95.000000,,2013-08-22 02:32:00,
2013-08-21 20:43:00,75.0,43.0,-100.00,SSW,197,12.0,19.0,32,0.00,,,0.00,95.000000,,2013-08-22 02:43:00,
2013-08-21 21:12:00,69.0,46.0,-100.00,SE,146,11.0,21.0,43,0.00,,,0.00,2.000000,,2013-08-22 03:12:00,
2013-08-21 21:22:00,69.0,46.0,-100.00,SE,146,11.0,21.0,43,0.00,,,0.00,2.000000,,2013-08-22 03:22:00,
2013-08-21 21:34:00,69.0,46.0,-100.00,SE,146,11.0,21.0,43,0.00,,,0.00,2.000000,,2013-08-22 03:34:00,
2013-08-21 21:45:00,69.0,46.0,-100.00,SE,146,11.0,21.0,43,0.00,,,0.00,2.000000,,2013-08-22 03:45:00,
2013-08-21 22:14:00,72.0,44.0,-100.00,ESE,119,6.0,21.0,36,0.00,,,0.00,0.000000,,2013-08-22 04:14:00,
2013-08-21 22:23:00,72.0,44.0,-100.00,ESE,119,6.0,21.0,36,0.00,,,0.00,0.000000,,2013-08-22 04:23:00,
2013-08-21 22:34:00,72.0,44.0,-100.00,ESE,119,6.0,21.0,36,0.00,,,0.00,0.000000,,2013-08-22 04:34:00,
2013-08-21 22:44:00,72.0,44.0,-100.00,ESE,119,6.0,21.0,36,0.00,,,0.00,0.000000,,2013-08-22 04:44:00,
2013-08-21 23:22:00,66.0,46.0,-100.00,ESE,113,8.0,18.0,49,0.00,,,0.00,0.000000,,2013-08-22 05:22:00,
2013-08-21 23:34:00,66.0,46.0,-100.00,ESE,113,8.0,18.0,49,0.00,,,0.00,0.000000,,2013-08-22 05:34:00,
2013-08-21 23:43:00,66.0,46.0,-100.00,ESE,113,8.0,18.0,49,0.00,,,0.00,0.000000,,2013-08-22 05:43:00,